Location: ???? ????
(31.2831°N, 45.5190°E)
Time: 05:12:40
(UTC+00:00)

Cosmos 1610 Rocket - Pass Details

Date: 24 February 2021
Orbit: 953 x 1002 km, 82.9° (Epoch: 14 April)

Event Time Altitude Azimuth Distance (km) Brightness Sun altitude
Rises 16:17:08 0° 179° (S) 3,614 7.5 -18.8°
Reaches altitude 10° 16:19:37 10° 177° (S) 2,674 6.8 -19.4°
Maximum altitude 16:25:42 74° 94° (E) 1,001 4.3 -20.7°
Drops below altitude 10° 16:31:52 10° 10° (N) 2,713 6.7 -22.0°
Sets 16:34:24 0° 9° (N) 3,670 7.5 -22.5°
